Time,TemperatureF,DewpointF,PressureIn,WindDirection,WindDirectionDegrees,WindSpeedMPH,WindSpeedGustMPH,Humidity,HourlyPrecipIn,Conditions,Clouds,dailyrainin,SolarRadiationWatts/m^2,SoftwareType,DateUTC
2013-04-05 00:11:00,47.0,45.0,-100.00,SW,234,1.0,8.0,93,-99.99,,,0.46,0.000000,,2013-04-05 07:11:00,
2013-04-05 00:42:00,47.0,45.0,-100.00,SW,234,1.0,8.0,93,-99.99,,,0.46,0.000000,,2013-04-05 07:42:00,
2013-04-05 00:52:00,47.0,45.0,-100.00,SW,234,1.0,8.0,93,-99.99,,,0.46,0.000000,,2013-04-05 07:52:00,
2013-04-05 01:02:00,47.0,45.0,-100.00,SW,234,1.0,8.0,93,-99.99,,,0.46,0.000000,,2013-04-05 08:02:00,
2013-04-05 01:11:00,46.0,43.0,-100.00,East,97,0.0,4.0,90,0.00,,,0.46,0.000000,,2013-04-05 08:11:00,
2013-04-05 01:43:00,46.0,43.0,-100.00,East,97,0.0,4.0,90,0.00,,,0.46,0.000000,,2013-04-05 08:43:00,
2013-04-05 01:52:00,46.0,43.0,-100.00,East,97,0.0,4.0,90,0.00,,,0.46,0.000000,,2013-04-05 08:52:00,
2013-04-05 02:02:00,46.0,43.0,-100.00,East,97,0.0,4.0,90,0.00,,,0.46,0.000000,,2013-04-05 09:02:00,
2013-04-05 02:11:00,45.0,43.0,-100.00,West,261,0.0,5.0,91,0.01,,,0.47,0.000000,,2013-04-05 09:11:00,
2013-04-05 02:43:00,45.0,43.0,-100.00,West,261,0.0,5.0,91,0.01,,,0.47,0.000000,,2013-04-05 09:43:00,
2013-04-05 02:53:00,45.0,43.0,-100.00,West,261,0.0,5.0,91,0.01,,,0.47,0.000000,,2013-04-05 09:53:00,
2013-04-05 03:02:00,45.0,43.0,-100.00,West,261,0.0,5.0,91,0.01,,,0.47,0.000000,,2013-04-05 10:02:00,
2013-04-05 03:11:00,44.0,43.0,-100.00,SW,232,0.0,5.0,95,0.18,,,0.65,0.000000,,2013-04-05 10:11:00,
2013-04-05 03:33:00,44.0,43.0,-100.00,SW,232,0.0,5.0,95,0.18,,,0.65,0.000000,,2013-04-05 10:33:00,
2013-04-05 03:43:00,44.0,43.0,-100.00,SW,232,0.0,5.0,95,0.18,,,0.65,0.000000,,2013-04-05 10:43:00,
2013-04-05 03:53:00,44.0,43.0,-100.00,SW,232,0.0,5.0,95,0.18,,,0.65,0.000000,,2013-04-05 10:53:00,
2013-04-05 04:02:00,44.0,43.0,-100.00,SW,232,0.0,5.0,95,0.18,,,0.65,0.000000,,2013-04-05 11:02:00,
2013-04-05 04:11:00,44.0,43.0,-100.00,SSW,200,0.0,6.0,96,0.20,,,0.85,0.000000,,2013-04-05 11:11:00,
2013-04-05 04:33:00,44.0,43.0,-100.00,SSW,200,0.0,6.0,96,0.20,,,0.85,0.000000,,2013-04-05 11:33:00,
2013-04-05 04:42:00,44.0,43.0,-100.00,SSW,200,0.0,6.0,96,0.20,,,0.85,0.000000,,2013-04-05 11:42:00,
2013-04-05 04:52:00,44.0,43.0,-100.00,SSW,200,0.0,6.0,96,0.20,,,0.85,0.000000,,2013-04-05 11:52:00,
2013-04-05 05:02:00,44.0,43.0,-100.00,SSW,200,0.0,6.0,96,0.20,,,0.85,0.000000,,2013-04-05 12:02:00,
2013-04-05 06:11:00,44.0,43.0,-100.00,South,186,1.0,9.0,97,-99.99,,,1.02,0.000000,,2013-04-05 13:11:00,
2013-04-05 06:42:00,44.0,43.0,-100.00,South,186,1.0,9.0,97,-99.99,,,1.02,0.000000,,2013-04-05 13:42:00,
2013-04-05 06:52:00,44.0,43.0,-100.00,South,186,1.0,9.0,97,-99.99,,,1.02,0.000000,,2013-04-05 13:52:00,
2013-04-05 07:02:00,44.0,43.0,-100.00,South,186,1.0,9.0,97,-99.99,,,1.02,0.000000,,2013-04-05 14:02:00,
2013-04-05 07:11:00,44.0,43.0,-100.00,SSW,202,2.0,11.0,97,0.05,,,1.06,0.000000,,2013-04-05 14:11:00,
2013-04-05 07:43:00,44.0,43.0,-100.00,SSW,202,2.0,11.0,97,0.05,,,1.06,0.000000,,2013-04-05 14:43:00,
2013-04-05 07:53:00,44.0,43.0,-100.00,SSW,202,2.0,11.0,97,0.05,,,1.06,0.000000,,2013-04-05 14:53:00,
2013-04-05 08:02:00,44.0,43.0,-100.00,SSW,202,2.0,11.0,97,0.05,,,1.06,0.000000,,2013-04-05 15:02:00,
2013-04-05 08:11:00,44.0,43.0,-100.00,SSW,200,2.0,10.0,96,0.00,,,1.06,10.000000,,2013-04-05 15:11:00,
2013-04-05 08:33:00,44.0,43.0,-100.00,SSW,200,2.0,10.0,96,0.00,,,1.06,10.000000,,2013-04-05 15:33:00,
2013-04-05 08:43:00,44.0,43.0,-100.00,SSW,200,2.0,10.0,96,0.00,,,1.06,10.000000,,2013-04-05 15:43:00,
2013-04-05 08:53:00,44.0,43.0,-100.00,SSW,200,2.0,10.0,96,0.00,,,1.06,10.000000,,2013-04-05 15:53:00,
2013-04-05 09:02:00,44.0,43.0,-100.00,SSW,200,2.0,10.0,96,0.00,,,1.06,10.000000,,2013-04-05 16:02:00,
2013-04-05 09:11:00,45.0,43.0,-100.00,South,189,2.0,12.0,92,0.00,,,1.06,66.000000,,2013-04-05 16:11:00,
2013-04-05 09:33:00,45.0,43.0,-100.00,South,189,2.0,12.0,92,0.00,,,1.06,66.000000,,2013-04-05 16:33:00,
2013-04-05 09:43:00,45.0,43.0,-100.00,South,189,2.0,12.0,92,0.00,,,1.06,66.000000,,2013-04-05 16:43:00,
2013-04-05 09:52:00,45.0,43.0,-100.00,South,189,2.0,12.0,92,0.00,,,1.06,66.000000,,2013-04-05 16:52:00,
2013-04-05 10:02:00,45.0,43.0,-100.00,South,189,2.0,12.0,92,0.00,,,1.06,66.000000,,2013-04-05 17:02:00,
2013-04-05 10:11:00,47.0,45.0,-100.00,South,182,2.0,11.0,91,0.00,,,1.06,71.000000,,2013-04-05 17:11:00,
2013-04-05 10:33:00,47.0,45.0,-100.00,South,182,2.0,11.0,91,0.00,,,1.06,71.000000,,2013-04-05 17:33:00,
2013-04-05 10:45:00,47.0,45.0,-100.00,South,182,2.0,11.0,91,0.00,,,1.06,71.000000,,2013-04-05 17:45:00,
2013-04-05 10:52:00,47.0,45.0,-100.00,South,182,2.0,11.0,91,0.00,,,1.06,71.000000,,2013-04-05 17:52:00,
2013-04-05 11:02:00,47.0,45.0,-100.00,South,182,2.0,11.0,91,0.00,,,1.06,71.000000,,2013-04-05 18:02:00,
2013-04-05 11:11:00,47.0,44.0,-100.00,South,185,2.0,11.0,90,0.00,,,1.06,79.000000,,2013-04-05 18:11:00,
2013-04-05 11:43:00,47.0,44.0,-100.00,South,185,2.0,11.0,90,0.00,,,1.06,79.000000,,2013-04-05 18:43:00,
2013-04-05 11:52:00,47.0,44.0,-100.00,South,185,2.0,11.0,90,0.00,,,1.06,79.000000,,2013-04-05 18:52:00,
2013-04-05 12:02:00,47.0,44.0,-100.00,South,185,2.0,11.0,90,0.00,,,1.06,79.000000,,2013-04-05 19:02:00,
2013-04-05 12:42:00,51.0,45.0,-100.00,SSW,198,4.0,12.0,81,0.00,,,1.05,244.000000,,2013-04-05 19:42:00,
2013-04-05 12:52:00,51.0,45.0,-100.00,SSW,198,4.0,12.0,81,0.00,,,1.05,244.000000,,2013-04-05 19:52:00,
2013-04-05 13:02:00,51.0,45.0,-100.00,SSW,198,4.0,12.0,81,0.00,,,1.05,244.000000,,2013-04-05 20:02:00,
2013-04-05 13:10:00,51.0,45.0,-100.00,SSW,198,4.0,12.0,81,0.00,,,1.05,244.000000,,2013-04-05 20:10:00,
2013-04-05 13:11:00,49.0,42.0,-100.00,South,189,1.0,11.0,77,0.00,,,1.05,201.000000,,2013-04-05 20:11:00,
2013-04-05 13:33:00,49.0,42.0,-100.00,South,189,1.0,11.0,77,0.00,,,1.05,201.000000,,2013-04-05 20:33:00,
2013-04-05 13:43:00,49.0,42.0,-100.00,South,189,1.0,11.0,77,0.00,,,1.05,201.000000,,2013-04-05 20:43:00,
2013-04-05 13:52:00,49.0,42.0,-100.00,South,189,1.0,11.0,77,0.00,,,1.05,201.000000,,2013-04-05 20:52:00,
2013-04-05 14:02:00,49.0,42.0,-100.00,South,189,1.0,11.0,77,0.00,,,1.05,201.000000,,2013-04-05 21:02:00,
2013-04-05 14:11:00,50.0,45.0,-100.00,South,187,3.0,12.0,82,0.00,,,0.87,208.000000,,2013-04-05 21:11:00,
2013-04-05 14:44:00,50.0,45.0,-100.00,South,187,3.0,12.0,82,0.00,,,0.87,208.000000,,2013-04-05 21:44:00,
2013-04-05 14:54:00,50.0,45.0,-100.00,South,187,3.0,12.0,82,0.00,,,0.87,208.000000,,2013-04-05 21:54:00,
2013-04-05 15:02:00,50.0,45.0,-100.00,South,187,3.0,12.0,82,0.00,,,0.87,208.000000,,2013-04-05 22:02:00,
2013-04-05 15:11:00,51.0,44.0,-100.00,South,189,1.0,11.0,76,0.00,,,0.70,263.000000,,2013-04-05 22:11:00,
2013-04-05 15:43:00,51.0,44.0,-100.00,South,189,1.0,11.0,76,0.00,,,0.70,263.000000,,2013-04-05 22:43:00,
2013-04-05 15:53:00,51.0,44.0,-100.00,South,189,1.0,11.0,76,0.00,,,0.70,263.000000,,2013-04-05 22:53:00,
2013-04-05 16:02:00,51.0,44.0,-100.00,South,189,1.0,11.0,76,0.00,,,0.70,263.000000,,2013-04-05 23:02:00,
2013-04-05 16:11:00,48.0,42.0,-100.00,SSW,199,2.0,18.0,81,0.00,,,0.68,121.000000,,2013-04-05 23:11:00,
2013-04-05 16:42:00,48.0,42.0,-100.00,SSW,199,2.0,18.0,81,0.00,,,0.68,121.000000,,2013-04-05 23:42:00,
2013-04-05 16:52:00,48.0,42.0,-100.00,SSW,199,2.0,18.0,81,0.00,,,0.68,121.000000,,2013-04-05 23:52:00,
2013-04-05 17:02:00,48.0,42.0,-100.00,SSW,199,2.0,18.0,81,0.00,,,0.68,121.000000,,2013-04-06 00:02:00,
2013-04-05 18:11:00,46.0,44.0,-100.00,NW,306,0.0,5.0,91,-99.99,,,0.73,48.000000,,2013-04-06 01:11:00,
2013-04-05 18:33:00,46.0,44.0,-100.00,NW,306,0.0,5.0,91,-99.99,,,0.73,48.000000,,2013-04-06 01:33:00,
2013-04-05 18:43:00,46.0,44.0,-100.00,NW,306,0.0,5.0,91,-99.99,,,0.73,48.000000,,2013-04-06 01:43:00,
2013-04-05 18:53:00,46.0,44.0,-100.00,NW,306,0.0,5.0,91,-99.99,,,0.73,48.000000,,2013-04-06 01:53:00,
2013-04-05 19:02:00,46.0,44.0,-100.00,NW,306,0.0,5.0,91,-99.99,,,0.73,48.000000,,2013-04-06 02:02:00,
2013-04-05 19:11:00,45.0,44.0,-100.00,SSE,158,0.0,4.0,95,0.11,,,0.84,18.000000,,2013-04-06 02:11:00,
2013-04-05 19:43:00,45.0,44.0,-100.00,SSE,158,0.0,4.0,95,0.11,,,0.84,18.000000,,2013-04-06 02:43:00,
2013-04-05 19:52:00,45.0,44.0,-100.00,SSE,158,0.0,4.0,95,0.11,,,0.84,18.000000,,2013-04-06 02:52:00,
2013-04-05 20:02:00,45.0,44.0,-100.00,SSE,158,0.0,4.0,95,0.11,,,0.84,18.000000,,2013-04-06 03:02:00,
2013-04-05 20:11:00,45.0,44.0,-100.00,East,85,0.0,5.0,97,0.14,,,0.98,2.000000,,2013-04-06 03:11:00,
2013-04-05 20:43:00,45.0,44.0,-100.00,East,85,0.0,5.0,97,0.14,,,0.98,2.000000,,2013-04-06 03:43:00,
2013-04-05 20:53:00,45.0,44.0,-100.00,East,85,0.0,5.0,97,0.14,,,0.98,2.000000,,2013-04-06 03:53:00,
2013-04-05 21:03:00,45.0,44.0,-100.00,East,85,0.0,5.0,97,0.14,,,0.98,2.000000,,2013-04-06 04:03:00,
2013-04-05 21:11:00,43.0,42.0,-100.00,ENE,67,0.0,4.0,97,0.08,,,1.05,0.000000,,2013-04-06 04:11:00,
2013-04-05 21:43:00,43.0,42.0,-100.00,ENE,67,0.0,4.0,97,0.08,,,1.05,0.000000,,2013-04-06 04:43:00,
2013-04-05 21:53:00,43.0,42.0,-100.00,ENE,67,0.0,4.0,97,0.08,,,1.05,0.000000,,2013-04-06 04:53:00,
2013-04-05 22:02:00,43.0,42.0,-100.00,ENE,67,0.0,4.0,97,0.08,,,1.05,0.000000,,2013-04-06 05:02:00,
2013-04-05 22:11:00,42.0,41.0,-100.00,East,85,0.0,7.0,97,0.03,,,1.08,0.000000,,2013-04-06 05:11:00,
2013-04-05 22:43:00,42.0,41.0,-100.00,East,85,0.0,7.0,97,0.03,,,1.08,0.000000,,2013-04-06 05:43:00,
2013-04-05 22:52:00,42.0,41.0,-100.00,East,85,0.0,7.0,97,0.03,,,1.08,0.000000,,2013-04-06 05:52:00,
2013-04-05 23:02:00,42.0,41.0,-100.00,East,85,0.0,7.0,97,0.03,,,1.08,0.000000,,2013-04-06 06:02:00,
2013-04-05 23:11:00,41.0,40.0,-100.00,East,85,1.0,9.0,97,0.01,,,-99.99,0.000000,,2013-04-06 06:11:00,
2013-04-05 23:43:00,41.0,40.0,-100.00,East,85,1.0,9.0,97,0.01,,,-99.99,0.000000,,2013-04-06 06:43:00,
2013-04-05 23:52:00,41.0,40.0,-100.00,East,85,1.0,9.0,97,0.01,,,-99.99,0.000000,,2013-04-06 06:52:00,